User: anonymous   Login
Location: Unspecified
(0.0000°N, 0.0000°E)
Time: 02:39:33
(UTC+01:00)
Language:

H-2A R/B - Orbit

View from above orbital plane
View from above orbital plane
View from above satellite
View from above satellite

Ground track
Ground track

The orbit data is extracted from the following two-line orbital elements,

1 28932U 06002B   17020.87293420 +.00000304 +00000-0 +34563-4 0  9999
2 28932 098.2077 297.8442 0091561 074.3821 327.8363 14.91207505595748
Epoch (UTC): 20 January 2017 20:57:01
Eccentricity: 0.0091561
inclination: 98.2077°
perigee height: 530 km
apogee height: 658 km
right ascension of ascending node: 297.8442°
argument of perigee: 74.3821°
revolutions per day: 14.91207505
mean anomaly at epoch: 327.8363°
orbit number at epoch: 59574

The dashed part of the orbit path shows where the satellite is in the earth's shadow,  

DLR